Location: *
(17.3333°S, 48.9000°E)
Time: 01:30:44
(UTC+00:00)

Daily predictions for brighter satellites

Satellite Brightness Start Highest point End
(mag) Time Altitude Azimuth Time Altitude Azimuth Time Altitude Azimuth
Centaur AC-125 4.2 00:05:26 30° E 00:05:26 30° E 00:08:53 10° ESE
BLOCK DM-SL R/B 4.4 00:04:30 21° N 00:06:34 23° NNE 00:23:18 10° ENE
Cosmos 2263 Rocket 2.2 00:09:12 74° SE 00:09:12 74° SE 00:14:20 10° SSE
MSX 3.7 00:13:56 40° NNE 00:16:09 86° ESE 00:21:57 10° S
PAYLOAD A 4.4 00:13:50 10° NNE 00:18:59 67° ESE 00:24:19 10° S
Cosmos 676 Rocket 4.1 00:17:13 10° S 00:22:35 75° ESE 00:27:53 10° NNE
ASC 2 Rocket 3.5 00:24:23 54° ENE 00:24:23 54° ENE 00:27:30 10° ENE
FUSE 4.1 00:24:41 58° SSW 00:24:56 59° SSW 00:30:16 10° ESE
CZ-4B R/B 3.1 00:26:20 10° SSE 00:28:11 29° SSE 00:28:11 29° SSE
Palapa 6 Rocket 3.5 00:30:10 63° W 00:31:08 82° NNW 00:36:19 10° ENE
Cosmos 1707 3.8 00:28:18 10° S 00:32:04 45° E 00:35:47 10° NNE
DNEPR-1 R/B 3.9 00:36:52 58° WSW 00:36:56 58° WSW 00:41:29 10° SSE
Timation 1 Rocket 4.2 00:39:21 42° NW 00:41:21 70° WSW 00:47:22 10° SSE
SL-16 R/B 2.0 00:37:43 10° SSW 00:43:23 73° WNW 00:48:59 10° N
Cosmos 1805 4.4 00:41:30 10° NNE 00:45:14 43° E 00:48:59 10° SSE
Cosmos 332 Rocket 3.8 00:44:07 28° N 00:46:45 84° ENE 00:51:40 10° SSE
Cosmos 1110 Rocket 4.1 00:46:30 46° W 00:47:04 49° WSW 00:52:05 10° S
USA 32 3.9 00:44:55 10° S 00:50:09 71° W 00:55:20 10° N
Cosmos 2074 Rocket 3.9 00:45:56 10° SSW 00:52:11 66° W 00:58:22 10° N
Cosmos 1689 Rocket 2.3 00:50:48 10° S 00:53:27 61° SSW 00:53:27 61° SSW
GPS 2-04 Rocket1 4.3 00:55:41 22° N 00:55:41 22° N 00:57:59 10° NNE
GPS 2-12 Rocket1 2.9 00:54:29 46° WNW 00:55:48 86° NNE 01:00:26 10° E
Meteor 1-31 Rocket 2.6 00:52:56 10° N 00:56:43 72° W 01:00:34 10° SSW
SeaSat 1 3.7 00:52:34 10° NE 00:57:11 42° ESE 01:01:50 10° S
Atlas Centaur 2 3.6 01:00:00 10° SW 01:03:56 28° SSE 01:08:43 10° ESE
Meteor 1-4 Rocket 2.4 01:00:44 10° SSW 01:04:25 67° W 01:08:00 10° N
CZ-4B R/B 4.1 01:00:55 10° N 01:05:11 57° W 01:09:37 10° SSW
Cosmos 1844 Rocket 3.8 01:01:05 10° N 01:06:19 43° ENE 01:11:34 10° SE
Aureole 3 3.9 01:05:01 12° NNW 01:09:03 61° W 01:14:43 10° S
Cosmos 1484 Rocket 3.2 01:09:56 10° NNE 01:13:49 66° ESE 01:17:49 10° S
Delta 2 Rocket 4.0 01:13:03 21° NW 01:16:35 78° NE 01:22:13 10° ESE
CZ-2C R/B 3.1 01:14:10 10° NNW 01:18:35 31° W 01:22:55 10° SW
ALOS 3.7 01:15:38 10° NE 01:20:00 41° ESE 01:24:25 10° S
Meteor 1-28 Rocket 4.4 01:18:51 10° SSW 01:21:55 23° WSW 01:23:05 20° WNW
OAO 3 Copernicus 4.3 01:19:43 19° WNW 01:23:19 81° SSW 01:28:24 10° SE
Cosmos 1437 Rocket 2.7 01:23:27 10° S 01:27:26 87° ESE 01:31:18 10° N
Cosmos 304 Rocket 3.8 01:25:54 10° NNW 01:30:36 62° WSW 01:35:23 10° S
Cosmos 1184 Rocket 3.6 01:28:37 13° NW 01:31:05 29° W 01:33:59 10° SSW
ISS -3.8 01:29:28 10° SW 01:32:52 83° NW 01:36:14 10° NE
ATLAS 5 CENTAUR R/B 3.5 01:28:01 13° WNW 01:33:22 32° WSW 01:39:29 10° S
Meteor 1-22 Rocket 4.2 01:28:22 10° NNW 01:33:33 56° W 01:38:56 10° S
Cosmos 1844 4.2 01:27:57 10° N 01:33:35 64° ENE 01:39:10 10° SSE
METEOR-M 4.4 01:31:28 10° NNE 01:36:47 76° ESE 01:42:09 10° S
Cosmos 2181 Rocket 4.1 01:31:10 10° NNW 01:37:12 55° W 01:43:14 10° S
Okean O Rocket 1.7 01:36:11 10° NNE 01:40:31 83° ESE 01:44:55 10° S
Hubble Space Telescope 0.9 01:38:29 10° WSW 01:42:35 60° NNW 01:46:39 10° NE
PSLV R/B 4.1 01:38:40 10° S 01:42:41 51° WSW 01:46:38 10° NNW
Cosmos 1892 Rocket 3.9 01:38:49 10° SSW 01:43:06 43° W 01:47:20 10° NNW
In-Cosmos 22 4.3 01:38:17 10° SSW 01:43:21 45° W 01:48:20 10° NNW
GP-B 3.6 01:42:50 10° S 01:47:17 68° E 01:51:42 10° N
Abrixas rocket 3.7 01:45:13 10° W 01:47:30 19° SW 01:49:48 10° S
Cosmos 1741 Rocket 4.4 01:43:09 10° SSW 01:48:06 41° W 01:53:03 10° N
Ariane H10+ 4.4 01:39:47 10° WNW 01:52:57 28° NNW 01:58:09 10° NE
CZ-3 R/B 2.6 01:50:21 10° WNW 02:10:54 82° NNE 02:16:18 10° ESE
